{"data":{"norad_id":53010,"epoch":"2026-05-25T04:53:45.314016Z","epoch_age_seconds":67458,"freshness":"FRESH","line1":"1 53010U 22076AA  26145.20399669 -.00000964  00000+0 -42475-4 0  9994","line2":"2 53010  53.2132 110.3613 0001356  80.0091 280.1054 15.08835343214406","mean_motion":15.08835343,"eccentricity":0.0001356,"inclination_deg":53.2132,"raan_deg":110.3613,"arg_perigee_deg":80.0091,"mean_anomaly_deg":280.1054,"bstar":-4.2475e-5,"rev_number":21440,"period_min":95.437849244495,"perigee_km":538.8195570757,"apogee_km":540.69569009761,"semimajor_km":6917.8946235867,"source":"CELESTRAK","updated_at":"2026-05-25T13:38:17.278533Z"}}